Location: Austin
(30.3000°N, 97.7500°W)
Time: 03:48:27
(UTC-05:00)

Helios 1B rocket - Pass Details

Date: 01 October 2024
Orbit: 523 x 534 km, 98.2° (Epoch: 06 October)

Event Time Altitude Azimuth Distance (km) Brightness Sun altitude
Rises 20:39:00 0° 178° (S) 2,648 5.7 -18.8°
Reaches altitude 10° 20:41:08 10° 183° (S) 1,761 4.8 -19.3°
Maximum altitude 20:44:49 49° 259° (W) 681 3.1 -20.1°
Drops below altitude 10° 20:48:31 10° 336° (NNW) 1,766 5.3 -20.9°
Sets 20:50:40 0° 341° (NNW) 2,656 6.2 -21.3°
